Data for 08/20/2010

Time Sea-Level Adjusted Pressure Absolute Pressure Temperature Relative Humidity Dew Point   
(mb) (inHg) (mb) (inHg) (C) (F) (%) (C) (F)
00:05 1015 29.97 844 24.92 17.5 63.6 36 2.6 36.7
00:10 1015 29.97 844 24.92 16.9 62.5 37 2.3 36.2
00:15 1015 29.97 844 24.92 16.7 62 38 2.5 36.5
00:20 1015 29.97 844 24.92 16.3 61.4 41 3.2 37.8
00:25 1015 29.97 844 24.92 16 60.8 39 2.3 36.2
00:30 1015 29.97 844 24.92 16.6 61.8 36 1.5 34.7
00:35 1015 29.97 844 24.92 16.8 62.2 36 1.8 35.2
00:40 1015 29.97 844 24.92 16.7 62.1 38 2.4 36.4
00:45 1015 29.97 844 24.92 16.2 61.1 42 3.3 38
00:50 1015 29.97 845 24.95 15.5 59.9 42 2.6 36.7
00:55 1015 29.97 845 24.95 15.3 59.6 42 2.5 36.5
01:00 1015 29.97 845 24.95 15.4 59.6 41 2.2 35.9
01:05 1015 29.97 845 24.95 15.4 59.7 41 2.4 36.2
01:10 1015 29.97 845 24.95 15.4 59.8 41 2.3 36.2
01:15 1015 29.97 845 24.95 15.3 59.6 40 1.8 35.2
01:20 1015 29.97 845 24.95 15.4 59.7 41 2.2 36
01:25 1015 29.97 845 24.95 15.3 59.5 40 2 35.6
01:30 1015 29.97 845 24.95 15.1 59.1 42 2.5 36.4
01:35 1015 29.97 845 24.95 15 59 46 3.5 38.2
01:40 1015 29.97 845 24.95 14.8 58.7 44 2.8 37
01:45 1015 29.97 845 24.95 14.4 57.9 46 3 37.4
01:50 1015 29.97 845 24.95 13.9 57.1 44 2.1 35.8
01:55 1015 29.97 845 24.95 13.9 57.1 47 2.8 37.1
02:00 1015 29.97 845 24.95 13.6 56.4 47 2.5 36.5
02:05 1015 29.97 845 24.95 13.5 56.3 46 2.1 35.8
02:10 1015 29.97 845 24.95 13.7 56.6 45 1.9 35.4
02:15 1015 29.97 845 24.95 13.9 57 43 1.7 35.1
02:20 1015 29.97 845 24.95 13.9 57 45 2.1 35.8
02:25 1015 29.97 845 24.95 13.6 56.4 45 2 35.6
02:30 1015 29.97 845 24.95 13.5 56.2 45 1.7 35
02:35 1015 29.97 845 24.95 13.5 56.4 45 1.8 35.2
02:40 1015 29.97 845 24.95 13.5 56.3 45 1.9 35.3
02:45 1015 29.97 845 24.95 13.4 56.1 45 1.7 35
02:50 1015 29.97 845 24.95 13.4 56 45 1.8 35.2
02:55 1015 29.97 845 24.95 13.3 56 46 2 35.5
03:00 1015 29.97 845 24.95 13.2 55.8 45 1.6 34.8
03:05 1015 29.97 845 24.95 13.2 55.8 44 1.4 34.5
03:10 1015 29.97 845 24.95 13.4 56.2 43 1.1 34
03:15 1015 29.97 845 24.95 13.6 56.4 41 0.5 32.9
03:20 1015 29.97 845 24.95 13.7 56.7 40 0.4 32.8
03:25 1015 29.97 845 24.95 13.7 56.7 40 0.3 32.5
03:30 1015 29.97 845 24.95 13.8 56.9 40 0.4 32.7
03:35 1015 29.97 845 24.95 13.8 56.8 40 0.4 32.7
03:40 1015 29.97 845 24.95 13.9 57 38 0 32
03:45 1015 29.97 845 24.95 14 57.2 38 -0.1 31.8
03:50 1015 29.97 845 24.95 14.1 57.4 38 -0.1 31.9
03:55 1015 29.97 845 24.95 14 57.2 38 0.1 32.2
04:00 1015 29.97 845 24.95 13.9 57 40 0.4 32.8
04:05 1015 29.97 845 24.95 13.6 56.5 41 0.6 33
04:10 1016 30 845 24.95 13.1 55.7 42 0.7 33.3
04:15 1016 30 845 24.95 12.9 55.3 41 0 32.1
04:20 1016 30 845 24.95 13.3 56 40 0 32
04:25 1015 29.97 845 24.95 13.5 56.3 40 0.1 32.3
04:30 1016 30 845 24.95 13.5 56.2 39 -0.2 31.7
04:35 1016 30 845 24.95 13.5 56.3 38 -0.7 30.8
04:40 1016 30 845 24.95 13.2 55.7 39 -0.3 31.4
04:45 1016 30 845 24.95 13.1 55.5 38 -0.8 30.5
04:50 1016 30 845 24.95 13.1 55.5 42 0.4 32.7
04:55 1016 30 845 24.95 12.2 54 44 0.5 32.9
05:00 1016 30 845 24.95 12 53.6 44 0.2 32.3
05:05 1016 30 845 24.95 12.3 54.1 41 -0.6 31
05:10 1016 30 845 24.95 12.5 54.4 42 -0 32
05:15 1016 30 845 24.95 12.4 54.2 43 0.1 32.1
05:20 1016 30 845 24.95 12.3 54.1 42 -0.1 31.7
05:25 1016 30 845 24.95 12.4 54.2 40 -0.7 30.8
05:30 1016 30 845 24.95 12.7 54.9 39 -0.9 30.4
05:35 1016 30 845 24.95 12.8 55.1 40 -0.5 31.2
05:40 1016 30 845 24.95 12.8 55.1 39 -0.6 30.9
05:45 1016 30 845 24.95 12.7 54.8 42 0 32
05:50 1016 30 845 24.95 12.3 54.1 40 -0.7 30.8
05:55 1016 30 845 24.95 12.6 54.6 40 -0.6 30.9
06:00 1016 30 845 24.95 12.7 54.9 39 -0.7 30.8
06:05 1016 30 845 24.95 12.9 55.1 39 -0.7 30.7
06:10 1016 30 845 24.95 12.8 55 40 -0.5 31.2
06:15 1016 30 845 24.95 12.7 54.9 41 -0.2 31.7
06:20 1016 30 845 24.95 12.5 54.6 41 -0.2 31.6
06:25 1016 30 845 24.95 12.3 54.2 42 -0.3 31.5
06:30 1016 30 845 24.95 12.3 54.2 40 -0.7 30.8
06:35 1016 30 845 24.95 12.9 55.2 42 0.3 32.6
06:40 1016 30 845 24.95 12.4 54.3 44 0.4 32.8
06:45 1016 30 845 24.95 12 53.7 45 0.6 33
06:50 1016 30 845 24.95 12.1 53.9 44 0.4 32.8
06:55 1016 30 845 24.95 12.3 54.2 41 -0.5 31.1
07:00 1016 30 845 24.95 12.5 54.5 42 -0.1 31.9
07:05 1016 30 845 24.95 12.4 54.3 42 -0 32
07:10 1016 30 845 24.95 12.4 54.3 41 -0.3 31.4
07:15 1016 30 845 24.95 12.6 54.7 40 -0.7 30.8
07:20 1016 30 845 24.95 13.1 55.5 42 0.5 32.9
07:25 1016 30 845 24.95 13.1 55.5 40 -0.2 31.6
07:30 1016 30 845 24.95 13.5 56.2 38 -0.3 31.4
07:35 1016 30 845 24.95 13.6 56.6 40 0.2 32.4
07:40 1016 30 845 24.95 13.7 56.6 38 -0.4 31.3
07:45 1016 30 846 24.98 13.7 56.7 39 0.2 32.3
07:50 1016 30 846 24.98 13.8 56.8 40 0.5 32.9
07:55 1016 30 846 24.98 14.1 57.4 38 0.1 32.2
08:00 1016 30 846 24.98 14.6 58.2 37 0.1 32.2
08:05 1016 30 846 24.98 14.7 58.4 38 0.5 32.9
08:10 1016 30 846 24.98 14.9 58.9 38 1 33.8
08:15 1016 30 846 24.98 15 59 40 1.6 34.9
08:20 1016 30 846 24.98 15.1 59.2 39 1.4 34.5
08:25 1016 30 846 24.98 15 59.1 41 2.1 35.7
08:30 1016 30 846 24.98 15.3 59.6 41 2.3 36.1
08:35 1016 30 846 24.98 15.3 59.6 40 2 35.7
08:40 1016 30 846 24.98 15.5 59.9 39 1.8 35.2
08:45 1017 30.03 846 24.98 16.1 61 37 1.5 34.7
08:50 1017 30.03 846 24.98 16.7 62 34 0.9 33.6
08:55 1017 30.03 846 24.98 16.9 62.4 35 1.5 34.7
09:00 1017 30.03 846 24.98 17.2 62.9 38 3 37.4
09:05 1017 30.03 846 24.98 17.8 64 33 1.5 34.6
09:10 1017 30.03 846 24.98 18.3 64.9 33 1.7 35.1
09:15 1017 30.03 846 24.98 18.6 65.5 30 1.1 33.9
09:20 1017 30.03 846 24.98 18.5 65.3 30 0.5 32.9
09:25 1017 30.03 846 24.98 18.8 65.8 30 0.9 33.6
09:30 1017 30.03 846 24.98 19.2 66.6 29 0.7 33.3
09:35 1017 30.03 846 24.98 19.9 67.8 27 0.3 32.6
09:40 1017 30.03 846 24.98 20.3 68.6 26 0.5 32.9
09:45 1017 30.03 846 24.98 20 67.9 27 0.8 33.4
09:50 1017 30.03 846 24.98 20.5 68.9 26 0.6 33.1
09:55 1017 30.03 846 24.98 21 69.8 27 1.4 34.6
10:00 1017 30.03 846 24.98 20.9 69.6 28 2.1 35.8
10:05 1017 30.03 846 24.98 21 69.9 28 2.2 35.9
10:10 1017 30.03 846 24.98 21.1 69.9 28 2.1 35.8
10:15 1017 30.03 846 24.98 21.6 70.8 27 1.9 35.5
10:20 1017 30.03 846 24.98 22.2 71.9 27 2.6 36.6
10:25 1017 30.03 846 24.98 22.6 72.6 26 2.5 36.5
10:30 1017 30.03 846 24.98 22.6 72.7 27 2.7 36.8
10:35 1017 30.03 846 24.98 22.9 73.2 26 2.6 36.6
10:40 1017 30.03 846 24.98 23.2 73.8 26 2.7 36.8
10:45 1017 30.03 846 24.98 22.6 72.6 26 2.5 36.5
10:50 1017 30.03 846 24.98 21.9 71.4 28 2.7 36.9
10:55 1017 30.03 846 24.98 21.2 70.2 28 2.1 35.7
11:00 1017 30.03 846 24.98 22.6 72.6 25 1.9 35.4
11:05 1017 30.03 846 24.98 22.5 72.4 27 2.8 37.1
11:10 1017 30.03 846 24.98 22.2 72 26 1.9 35.3
11:15 1017 30.03 846 24.98 22.9 73.1 24 1.6 34.8
11:20 1016 30 846 24.98 22.9 73.1 27 2.9 37.1
11:25 1016 30 846 24.98 23 73.3 27 3 37.4
11:30 1016 30 846 24.98 23.3 73.9 23 1 33.7
11:35 1016 30 846 24.98 23.2 73.8 22 0.3 32.5
11:40 1016 30 846 24.98 23.1 73.6 23 0.8 33.4
11:45 1016 30 846 24.98 24 75.2 20 0.2 32.3
11:50 1016 30 846 24.98 24.9 76.8 19 -0.4 31.2
11:55 1016 30 846 24.98 24.9 76.8 20 0.6 33.1
12:00 1016 30 845 24.95 25 77 19 0.1 32.2
12:05 1016 30 845 24.95 24.4 75.8 19 -0.2 31.6
12:10 1016 30 845 24.95 24.4 75.9 20 0 32
12:15 1016 30 845 24.95 25.6 78.2 17 -1 30.2
12:20 1016 30 845 24.95 26.3 79.3 17 -0.1 31.9
12:25 1016 30 845 24.95 26.2 79.2 16 -1.4 29.5
12:30 1016 30 845 24.95 25.1 77.2 19 0 32
12:35 1016 30 845 24.95 25.7 78.3 18 0 32
12:40 1016 30 845 24.95 25.9 78.5 17 -0.8 30.5
12:45 1016 30 845 24.95 25.2 77.4 18 -0.8 30.6
12:50 1016 30 845 24.95 25.6 78.1 15 -2.7 27.2
12:55 1015 29.97 845 24.95 25.5 77.9 17 -1.4 29.4
13:00 1015 29.97 845 24.95 25.6 78 15 -3.1 26.4
13:05 1015 29.97 845 24.95 26.1 79 15 -2.4 27.6
13:10 1015 29.97 845 24.95 26.8 80.3 14 -2.3 27.9
13:15 1015 29.97 844 24.92 26 78.7 17 -0.8 30.5
13:20 1015 29.97 844 24.92 26.8 80.2 15 -2.1 28.2
13:25 1015 29.97 844 24.92 26.6 79.8 15 -2.1 28.2
13:30 1015 29.97 844 24.92 26.6 79.9 14 -2.5 27.6
13:35 1015 29.97 844 24.92 27.3 81.2 15 -1.3 29.6
13:40 1015 29.97 844 24.92 27.2 81 13 -3.3 26
13:45 1015 29.97 844 24.92 26.8 80.2 13 -3.6 25.5
13:50 1015 29.97 844 24.92 26.8 80.2 13 -3.7 25.3
13:55 1015 29.97 844 24.92 27 80.6 13 -3.9 24.9
14:00 1015 29.97 844 24.92 27.2 80.9 13 -3 26.6
14:05 1015 29.97 844 24.92 27.7 81.9 13 -2.4 27.7
14:10 1015 29.97 844 24.92 27.2 81 14 -2 28.5
14:15 1015 29.97 844 24.92 28 82.3 13 -3 26.6
14:20 1015 29.97 844 24.92 27.9 82.3 13 -3.1 26.4
14:25 1015 29.97 844 24.92 27.9 82.3 13 -2.5 27.5
14:30 1015 29.97 844 24.92 27.7 81.9 13 -2.8 27
14:35 1014 29.94 844 24.92 27.7 81.8 14 -2.3 27.8
14:40 1014 29.94 844 24.92 27.7 81.9 14 -2 28.3
14:45 1014 29.94 844 24.92 28.1 82.7 13 -2.2 28.1
14:50 1014 29.94 844 24.92 28.1 82.6 13 -2.3 27.9
14:55 1014 29.94 843 24.89 27.8 82.1 14 -1.9 28.6
15:00 1014 29.94 843 24.89 28.2 82.7 14 -1.7 28.9
15:05 1014 29.94 843 24.89 28.7 83.7 14 -1.4 29.4
15:10 1014 29.94 843 24.89 28.4 83.1 15 -0.7 30.7
15:15 1014 29.94 843 24.89 27.4 81.3 17 0.2 32.4
15:20 1014 29.94 843 24.89 27.4 81.4 15 -1.2 29.8
15:25 1014 29.94 843 24.89 28.3 82.9 16 0.4 32.8
15:30 1014 29.94 843 24.89 28.8 83.9 15 -0.4 31.2
15:35 1014 29.94 843 24.89 29.3 84.7 14 -0.6 30.9
15:40 1014 29.94 843 24.89 29.1 84.3 14 -0.9 30.4
15:45 1014 29.94 843 24.89 28.1 82.6 14 -1.2 29.8
15:50 1014 29.94 843 24.89 28.5 83.4 14 -0.9 30.3
15:55 1014 29.94 843 24.89 28.2 82.7 15 -0.4 31.3
16:00 1014 29.94 843 24.89 28.4 83.1 15 -0.6 30.9
16:05 1014 29.94 843 24.89 28.1 82.6 15 -0.7 30.7
16:10 1014 29.94 843 24.89 27.4 81.3 15 -1.1 30
16:15 1014 29.94 843 24.89 27.3 81.2 15 -1.2 29.9
16:20 1014 29.94 843 24.89 27.7 81.9 15 -1.1 30.1
16:25 1014 29.94 843 24.89 27.7 81.8 14 -1.9 28.6
16:30 1014 29.94 843 24.89 28.2 82.7 14 -1.1 30
16:35 1014 29.94 843 24.89 28.2 82.8 14 -1.7 29
16:40 1014 29.94 843 24.89 28.5 83.3 14 -1.2 29.9
16:45 1014 29.94 843 24.89 28.7 83.6 13 -2.3 27.8
16:50 1014 29.94 843 24.89 29.4 85 13 -1.6 29.1
16:55 1014 29.94 843 24.89 29.4 84.9 13 -1.7 29
17:00 1013 29.91 843 24.89 29.2 84.5 13 -2.1 28.3
17:05 1013 29.91 843 24.89 29.1 84.4 13 -1.7 28.9
17:10 1013 29.91 843 24.89 29.7 85.4 12 -1.9 28.5
17:15 1013 29.91 843 24.89 30.1 86.2 12 -1.8 28.7
17:20 1013 29.91 842 24.86 30 86 13 -1.4 29.5
17:25 1013 29.91 842 24.86 30.2 86.4 12 -1.9 28.6
17:30 1013 29.91 842 24.86 30.4 86.6 13 -1.2 29.9
17:35 1013 29.91 842 24.86 30.2 86.3 13 -1.3 29.7
17:40 1013 29.91 842 24.86 30 85.9 13 -1.4 29.4
17:45 1013 29.91 842 24.86 29.7 85.4 13 -1.8 28.8
17:50 1013 29.91 842 24.86 29.9 85.8 13 -1.5 29.4
17:55 1013 29.91 842 24.86 29.6 85.2 14 -0.7 30.7
18:00 1013 29.91 842 24.86 29.1 84.4 14 -1.2 29.8
18:05 1013 29.91 842 24.86 28.7 83.7 14 -1.4 29.5
18:10 1013 29.91 842 24.86 27.9 82.2 14 -2.1 28.1
18:15 1013 29.91 842 24.86 28.3 82.9 14 -1.6 29.2
18:20 1013 29.91 842 24.86 29.2 84.5 13 -1.3 29.7
18:25 1013 29.91 842 24.86 29.4 84.8 14 -1 30.2
18:30 1013 29.91 842 24.86 29.4 84.9 13 -1.5 29.3
18:35 1013 29.91 842 24.86 29.6 85.4 14 -0.6 30.9
18:40 1013 29.91 842 24.86 29.8 85.7 14 -0.6 30.9
18:45 1013 29.91 842 24.86 29.4 84.8 15 -0 31.9
18:50 1013 29.91 842 24.86 28.8 83.9 16 0.8 33.5
18:55 1013 29.91 842 24.86 28.6 83.4 16 0.2 32.4
19:00 1013 29.91 842 24.86 28.5 83.2 16 0.4 32.7
19:05 1013 29.91 842 24.86 28.3 82.9 17 1.5 34.7
19:10 1013 29.91 842 24.86 28.1 82.5 18 1.8 35.3
19:15 1013 29.91 842 24.86 27.9 82.2 18 1.7 35
19:20 1013 29.91 842 24.86 27.7 81.9 18 1.8 35.2
19:25 1013 29.91 842 24.86 27.4 81.2 18 1.5 34.7
19:30 1013 29.91 842 24.86 27 80.5 19 1.4 34.4
19:35 1013 29.91 842 24.86 26.9 80.4 19 1.5 34.7
19:40 1013 29.91 842 24.86 26.6 79.9 19 1.4 34.5
19:45 1013 29.91 842 24.86 26.7 80 18 1 33.8
19:50 1013 29.91 842 24.86 26.6 79.8 23 3.8 38.8
19:55 1013 29.91 842 24.86 25.8 78.4 22 2.9 37.3
20:00 1013 29.91 843 24.89 25.6 78.1 22 2.3 36.2
20:05 1013 29.91 843 24.89 25.6 78.1 23 2.9 37.3
20:10 1013 29.91 843 24.89 25.3 77.6 23 2.9 37.2
20:15 1013 29.91 843 24.89 25 77 24 3.2 37.8
20:20 1013 29.91 843 24.89 24.5 76.2 26 4 39.1
20:25 1013 29.91 843 24.89 24.2 75.5 25 3.4 38
20:30 1013 29.91 843 24.89 24 75.1 26 3.3 37.9
20:35 1013 29.91 843 24.89 23.8 74.9 25 2.6 36.7
20:40 1013 29.91 843 24.89 23.6 74.4 27 3.6 38.4
20:45 1013 29.91 843 24.89 23.4 74.1 25 2.2 36
20:50 1013 29.91 843 24.89 23.3 73.9 24 1.7 35.1
20:55 1014 29.94 843 24.89 23.1 73.5 25 2.2 36
21:00 1014 29.94 843 24.89 22.8 73 25 1.7 35
21:05 1014 29.94 843 24.89 22.5 72.5 25 1.7 35.1
21:10 1014 29.94 843 24.89 22.2 71.9 25 1.4 34.5
21:15 1014 29.94 843 24.89 22.1 71.7 26 1.6 35
21:20 1014 29.94 843 24.89 21.9 71.4 26 1.9 35.4
21:25 1014 29.94 843 24.89 21.3 70.3 30 3.2 37.8
21:30 1014 29.94 843 24.89 20.4 68.7 30 2.4 36.3
21:35 1014 29.94 843 24.89 20.5 68.8 28 1.4 34.6
21:40 1014 29.94 843 24.89 20.6 69 29 1.9 35.5
21:45 1014 29.94 843 24.89 20.4 68.7 28 1.3 34.4
21:50 1014 29.94 843 24.89 20.6 69.2 27 0.9 33.6
21:55 1014 29.94 843 24.89 21.2 70.1 26 1.1 34
22:00 1014 29.94 843 24.89 21.3 70.3 26 1 33.8
22:05 1014 29.94 843 24.89 21.4 70.4 25 0.5 32.9
22:10 1014 29.94 843 24.89 21.7 71 25 0.8 33.4
22:15 1014 29.94 843 24.89 21.7 71 24 0.6 33
22:20 1014 29.94 843 24.89 21.5 70.8 27 1.9 35.5
22:25 1014 29.94 843 24.89 20.9 69.5 26 1 33.8
22:30 1014 29.94 843 24.89 20.9 69.7 26 0.8 33.4
22:35 1014 29.94 843 24.89 21.4 70.5 25 0.6 33
22:40 1014 29.94 843 24.89 21.9 71.4 23 0.2 32.4
22:45 1014 29.94 843 24.89 21.9 71.3 24 0.7 33.2
22:50 1014 29.94 843 24.89 21.4 70.5 26 1.1 34
22:55 1013 29.91 843 24.89 21.7 71 25 0.8 33.4
23:00 1013 29.91 843 24.89 21.8 71.3 24 0.8 33.5
23:05 1013 29.91 843 24.89 21.8 71.2 23 0.1 32.2
23:10 1013 29.91 843 24.89 22.6 72.6 23 0.5 32.8
23:15 1013 29.91 843 24.89 22.8 73.1 25 1.9 35.4
23:20 1013 29.91 843 24.89 23.1 73.6 21 -0 31.9
23:25 1013 29.91 843 24.89 23.4 74.1 22 0.9 33.6
23:30 1013 29.91 843 24.89 23.2 73.7 24 1.5 34.7
23:35 1013 29.91 843 24.89 23.1 73.6 23 1.3 34.3
23:40 1013 29.91 843 24.89 22.9 73.3 22 0.6 33
23:45 1013 29.91 842 24.86 22.5 72.4 23 0.8 33.5
23:50 1013 29.91 842 24.86 22.2 72 22 -0.1 31.9
23:55 1013 29.91 842 24.86 22.3 72.2 22 -0.2 31.6